sat.trackr.live / text

‹ back to catalog

UFO 10 (USA 146)

NORAD 25967 · 1999-063A

PAYLOAD ACTIVE UNKNOWN

§ Identity

Operator
Country
US
Launch date
1999-11-23
Launch site
AFETR
Launch vehicle
Mass (kg)
RCS (m²)
0.52

Purposes: comms

External: N2YO · Heavens-Above · Gunter

§ Orbital elements

Epoch: 2026-09-12T03:31:56.441856Z

Period
1,436.14 min
Inclination
9.9148°
Eccentricity
0.0004247
Mean motion
1.00269074 rev/d
Perigee alt
35,769.4 km
Apogee alt
35,805.3 km
Semi-major
42,165.5 km
B*
0.0000e+0
RAAN
26.7334°
Arg perigee
190.5276°
Mean anomaly
163.9927°
Rev number
9,821

§ Raw data

UFO 10 (USA 146)1 25967U 99063A   26255.14718104 -.00000199  00000+0  00000+0 0  99902 25967   9.9148  26.7334 0004247 190.5276 163.9927  1.00269074 98210

JSON: /api/v1/satellites/25967 · /tle

For live sub-satellite position, see the globe view (requires WebGL).

§ Visibility from observer

Set your observer location to see the next 7 days of passes ≥ 10°. The values pass through the URL so the page stays shareable.

No JS? Fill the form by hand. The geolocation button needs JavaScript.